Tracking 19245 objects as of 21-Aug-2018
HD Live streaming from Space Station
objects crossing your sky now

CANX-6

Track CANX-6 now!
10-day predictions
CANX-6 is classified as:


NORAD ID: 32784
Int'l Code: 2008-021B
Perigee: 605.7 km
Apogee: 625.1 km
Inclination: 97.6 °
Period: 96.9 minutes
Semi major axis: 6986 km
RCS: 0.1943 m2 (medium)
Launch date: April 28, 2008
Source: Canada (CA)
Launch site: SRIHARIKOTA (SRI)

CanX 6 is a 14-pound [6-kg] Canadian spacecraft designed to track ships using maritime navigation signals transmitted from sea vessels.
aabbcc
Your satellite tracking list
Your tracking list is empty




NASA's NSSDC Master Catalog

Two Line Element Set (TLE):
1 32784U 08021B   18232.47981486 +.00000160 +00000-0 +23752-4 0  9998
2 32784 097.5613 237.2636 0013888 190.6749 169.4175 14.86699790558325
Source of the keplerian elements: AFSPC